Regional Weather Roundup
Issued by NWS

Home | Current Version | Previous Version | Graphics & Text | Print | Product List | Glossary On
Versions: 1 2 3 4 5 6 7 8 9 10 11 12 13 14 15 16 17 18 19 20 21 22 23 24 25 26 27 28 29 30
000
ASUS45 KBOU 300207
RWRCO

WEATHER ROUNDUP FOR COLORADO
NATIONAL WEATHER SERVICE DENVER/BOULDER CO
800 PM MDT WED OCT 29 2014

NOTE: "FAIR" INDICATES FEW OR NO CLOUDS BELOW 12000 FEET WITH NO
SIGNIFICANT WEATHER AND/OR OBSTRUCTIONS TO VISIBILITY.

COZ001>005-013-030-031-300300-
...NORTHWEST COLORADO...

CITY           SKY/WX    TMP DP  RH WIND       PRES   REMARKS
CRAIG          CLEAR     43  20  39 W6        30.29R
HAYDEN         CLEAR     45  19  36 S6        30.29R
MEEKER         MOCLDY    43  24  47 S3        30.30R
MOUNT WERNER   NOT AVBL
STEAMBOAT SPGS PTCLDY    47  19  32 CALM      30.30R
WALDEN         CLEAR     39  19  45 SW6       30.31R
$$

COZ006>008-011-300300-
...WEST CENTRAL VALLEYS...

CITY           SKY/WX    TMP DP  RH WIND       PRES   REMARKS
GRAND JUNCTION CLEAR     41  19  41 CALM      30.26R
MONTROSE       CLEAR     49  19  30 SE3       30.31R
EAGLE          CLEAR     52  16  24 NW6       30.33R
RIFLE          CLEAR     49  20  31 S6        30.27R
DELTA          CLEAR     54  17  23 CALM      30.28R
NUCLA          CLEAR     48  16  27 E8        30.33R
$$

COZ017>023-064>068-300300-
...SOUTHWEST COLORADO...

CITY           SKY/WX    TMP DP  RH WIND       PRES   REMARKS
DURANGO        CLEAR     47  17  30 CALM      30.29R
CORTEZ         CLEAR     42  17  36 NE9       30.30R
PAGOSA SPRINGS CLEAR     42  20  41 CALM      30.35R
TELLURIDE      CLEAR     44  13  29 CALM      30.45R
WOLF CREEK PAS NOT AVBL
$$

COZ009-010-012-014-032>034-037-058>063-300300-
...CENTRAL COLORADO...

CITY           SKY/WX    TMP DP  RH WIND       PRES   REMARKS
ASPEN          CLEAR     39  18  42 S8        30.36R
BUENA VISTA    CLEAR     49  11  21 W8        30.30R
COPPER MTN     PTCLDY    34  12  40 W17       30.49R WCI  23
BERTHOUD PASS  FAIR      28  23  80 NW23G31   30.49R WCI  14
COTTONWOOD PAS CLEAR     48   3  15 W23G40    30.37R
GUNNISON       CLEAR     45   9  23 NW7       30.36R
KREMMLING      CLEAR     43  18  36 N3          N/A
LEADVILLE      CLEAR     37  10  32 N9        30.41R
MONARCH PASS   CLEAR     34   7  32 W36       30.57R WCI  19
SALIDA         CLEAR     55  10  16 W14G26    30.33R
SUNLIGHT       CLEAR     36  18  48 CALM      30.48R
WILKERSON PASS NOT AVBL
$$

COZ069>075-300300-
...SAN LUIS VALLEY/SANGRE DE CRISTO MOUNTAINS...

CITY           SKY/WX    TMP DP  RH WIND       PRES   REMARKS
ALAMOSA        PTCLDY    43  12  28 N3        30.27S
LA VETA PASS   CLEAR     39   9  28 SW6       30.37F
SAGUACHE       PTCLDY    46  12  25 E6        30.32R
$$

COZ035-036-038>040-300300-
...NORTHERN COLORADO FRONT RANGE...

CITY           SKY/WX    TMP DP  RH WIND       PRES   REMARKS
DENVER INTL AP PTCLDY    60  20  21 NE5       30.15R
DMNS CITY PARK   N/A     61  18  18 W9        30.14S
AURORA         PTCLDY    58  20  22 W8        30.17R
FRONT RANGE AP PTCLDY    59  19  21 N3        30.16R
ERIE MUNI ARPT PTCLDY    53  19  26 N8        30.14R
BOULDER MUN AP PTCLDY    61  19  20 NW8       30.13S
CENTENNIAL     PTCLDY    58  19  22 N7        30.17R
BROOMFIELD     PTCLDY    59  19  21 W12       30.16R
FORT COLLINS   CLEAR     57  21  24 N16       30.15R
LONGMONT       CLEAR     54  24  31 S5        30.15S
$$

COZ041-046-047-076>085-087-088-300300-
...PIKES PEAK/PALMER DIVIDE AND SOUTHERN FOOTHILLS...

CITY           SKY/WX    TMP DP  RH WIND       PRES   REMARKS
COLO. SPRINGS  PTCLDY    49  18  29 N7        30.20R
A. F. ACADEMY  CLEAR     44  19  37 N7        30.21R
ELLICOTT       CLEAR     43  16  33 E9        30.18R
FALCON         CLEAR     49  16  26 N9        30.23R
FORT CARSON    CLEAR     47  19  33 N8        30.17R
LIMON          CLEAR     41  19  41 N8        30.15R
MONUMENT HILL  CLEAR     39  19  45 S3        30.23R
TRINIDAD       CLEAR     47  21  35 W9        30.13R
$$

COZ042>045-048>051-090-091-300300-
...NORTHEAST COLORADO...

CITY           SKY/WX    TMP DP  RH WIND       PRES   REMARKS
GREELEY ARPT   CLEAR     52  19  28 N13       30.14R
AKRON          CLEAR     51  24  34 N12       30.11R
BURLINGTON     PTCLDY    49  23  36 SW10      30.08R
WRAY           MOCLDY    52  19  26 NW9       30.05S
STERLING       CLEAR     57  28  33 NW14      30.08R
HOLYOKE        MOCLDY    59  23  25 NW13      30.05R
FORT MORGAN    CLEAR     54  22  29 N14       30.13R
$$

COZ086-089-092>099-300300-
...SOUTHEAST COLORADO...

CITY           SKY/WX    TMP DP  RH WIND       PRES   REMARKS
PUEBLO         CLEAR     57  17  21 NE10      30.10R
LA JUNTA       CLEAR     52  23  32 NE8       30.07R
LAMAR          CLEAR     48  25  40 E3        30.06R
SPRINGFIELD      N/A     51  32  48 S10       30.09R
$$



USA.gov is the U.S. government's official web portal to all federal, state and local government web resources and services.